[[{"header":{"parameterUnit":"m.s-1","parameterCategory":1,"la1":30.2991,"la2":30.254,"lo1":-89.0895,"lo2":-89.0444,"dy":0.0017,"dx":0.0017,"nx":28,"ny":28,"refTime":"2025-03-25T21:00:00:Z","depth":0,"parameterNumber":2,"parameterNumberName":"U-component_of_WINDS"},"data":[0,0,0,0,0,0,0,0,0,0,0,0,0,0,0,0,0,0,0,0,0,0,0,0,0,0,0,0,0,0,0,0,0,0,0,0,0,0,0,0,0,0,0,0,0,0,0,0,0,0,0,0,0,0,0,0,0,0,-0.8639,-0.8638,0,-0.863,-0.8629,-0.8629,-0.8607,-0.8606,-0.8606,-0.8605,-0.8598,-0.8598,-0.8599,0,0,0,0,0,0,0,0,0,0,0,0,0,-0.8639,-0.8639,-0.8639,-0.8638,-0.8638,-0.863,-0.8629,-0.8629,-0.8607,-0.8606,-0.8606,-0.8605,-0.8598,-0.8598,-0.8599,0,0,0,0,0,0,0,0,0,0,0,0,0,-0.8636,-0.8639,-0.8639,-0.8626,-0.8625,-0.863,-0.8629,-0.8629,-0.8607,-0.8606,-0.8606,-0.8605,-0.8598,-0.8598,-0.8599,-0.8615,0,0,-0.86,-0.86,0,0,0,0,0,0,0,0,-0.8636,-0.8636,-0.8628,-0.8627,-0.8626,-0.8619,-0.8627,-0.8625,-0.8607,-0.8614,-0.8605,-0.8605,-0.8606,-0.8605,-0.8605,-0.8615,-0.8615,-0.86,-0.86,-0.86,-0.86,0,0,0,0,0,0,0,-0.8636,-0.8636,-0.8635,-0.8628,-0.8626,-0.8622,-0.8621,-0.8626,-0.8614,-0.8613,-0.8612,-0.8611,-0.8605,-0.8605,-0.8605,-0.8615,-0.86,-0.86,-0.86,-0.8601,-0.864,-0.8641,0,0,0,0,0,0,-0.8638,-0.8636,-0.8635,-0.8635,-0.8629,-0.8622,-0.8621,-0.8622,-0.8614,-0.8612,-0.8611,-0.861,-0.8605,-0.8605,-0.8605,-0.8625,-0.86,-0.8601,-0.8601,-0.8639,-0.864,-0.8641,0,0,0,0,0,0,-0.8638,-0.8638,-0.8636,-0.8635,-0.8634,-0.8623,-0.8624,-0.8622,-0.8622,-0.8612,-0.861,-0.8614,-0.8604,-0.8604,-0.8613,-0.8624,-0.8601,-0.8601,-0.8638,-0.8639,-0.864,-0.8664,0,0,0,0,0,0,-0.8638,-0.8638,-0.8643,-0.8635,-0.8634,-0.8643,-0.8625,-0.8622,-0.8622,-0.862,-0.8614,-0.8612,-0.8604,-0.8613,-0.8614,-0.8624,-0.8601,-0.8637,-0.8639,-0.864,-0.8662,-0.8666,-0.8669,0,0,0,0,0,-0.8638,-0.8651,-0.8644,-0.8644,-0.8641,-0.8644,-0.8644,-0.8633,-0.8623,-0.8629,-0.8624,-0.8612,-0.8623,-0.8614,-0.8615,-0.8625,-0.8636,-0.8638,-0.864,-0.8661,-0.8665,-0.8669,0,0,0,0,0,0,-0.866,-0.8649,-0.8642,-0.8652,-0.8649,-0.864,-0.8647,-0.8638,-0.8638,-0.8636,-0.8624,-0.8623,-0.8634,-0.8631,-0.8621,-0.8642,-0.8628,-0.863,-0.8644,-0.8648,-0.8651,-0.8652,-0.8602,0,0,0,0,0,-0.8666,-0.8669,-0.866,-0.8669,-0.8669,-0.8658,-0.8659,-0.8651,-0.8648,-0.8647,-0.8642,-0.864,-0.8643,-0.8645,-0.8648,-0.8662,-0.8661,-0.867,-0.8674,-0.8677,-0.8678,-0.8687,-0.8692,-0.8647,-0.8647,-0.8647,0,0,-0.8679,-0.8673,-0.8676,-0.8674,-0.8671,-0.8675,-0.8657,-0.8662,-0.8666,-0.8648,-0.8656,-0.8653,-0.865,-0.8663,-0.8668,-0.866,-0.8691,-0.8679,-0.8681,-0.8682,-0.869,-0.8694,-0.8698,-0.8648,-0.8648,-0.8648,0,0,-0.8704,-0.87,-0.8708,-0.8705,-0.8701,-0.8695,-0.8697,-0.869,-0.8687,-0.8695,-0.8682,-0.8687,-0.8692,-0.8691,-0.8691,-0.8718,-0.8708,-0.8719,-0.8737,-0.8746,-0.8749,-0.8752,-0.8763,-0.8766,-0.8721,-0.8721,-0.8721,0,-0.872,-0.8725,-0.8713,-0.8719,-0.8719,-0.8704,-0.8713,-0.8712,-0.8709,-0.871,-0.8701,-0.8708,-0.8705,-0.8718,-0.8725,-0.8725,-0.8728,-0.8719,-0.8749,-0.8752,-0.8755,-0.8765,-0.8769,-0.8722,-0.8722,-0.8722,-0.8722,0,-0.8746,-0.875,-0.8757,-0.8754,-0.8755,-0.8763,-0.8754,-0.8756,-0.8749,-0.8744,-0.8753,-0.8749,-0.8751,-0.8754,-0.8746,-0.8766,-0.8761,-0.8752,-0.8737,-0.8761,-0.877,-0.8773,-0.8724,-0.8724,-0.8724,-0.8723,0,0,-0.8783,-0.8775,-0.8778,-0.8777,-0.8772,-0.8776,-0.8783,-0.8785,-0.8788,-0.8787,-0.8794,-0.8799,-0.8791,-0.8791,-0.8784,-0.8792,-0.8814,-0.8781,-0.8781,-0.8788,-0.8837,-0.8844,-0.8848,-0.8808,-0.8809,-0.8809,-0.8837,0,-0.8807,-0.8819,-0.8809,-0.8823,-0.8827,-0.8814,-0.8821,-0.8819,-0.8815,-0.8819,-0.8815,-0.8819,-0.8807,-0.8807,-0.8814,-0.881,-0.8824,-0.8808,-0.8815,-0.8816,-0.8816,-0.8853,-0.886,-0.8886,-0.884,-0.8841,-0.8841,0,-0.8836,-0.8836,-0.8851,-0.8846,-0.8848,-0.8854,-0.8855,-0.8859,-0.8857,-0.8854,-0.8855,-0.8847,-0.8855,-0.8841,-0.8854,-0.8843,-0.8846,-0.8845,-0.8845,-0.8845,-0.883,-0.8854,-0.8894,-0.8898,-0.8847,-0.8846,-0.8846,0,-0.8863,-0.8867,-0.8876,-0.8876,-0.8871,-0.8876,-0.8874,-0.8872,-0.8874,-0.8876,-0.8877,-0.888,-0.8882,-0.8885,-0.8878,-0.8868,-0.8892,-0.8877,-0.889,-0.889,-0.8895,-0.8895,-0.8936,-0.8897,-0.8897,-0.8897,-0.8897,0,-0.889,-0.89,-0.8888,-0.8894,-0.8905,-0.8895,-0.8906,-0.8903,-0.8901,-0.8907,-0.8896,-0.8902,-0.8893,-0.8898,-0.8893,-0.8905,-0.8905,-0.8904,-0.8902,-0.8904,-0.8905,-0.8906,-0.8904,-0.8898,-0.8897,-0.8897,-0.8897,0,-0.8921,-0.8914,-0.8923,-0.8918,-0.8917,-0.8925,-0.8921,-0.8927,-0.8923,-0.8931,-0.8932,-0.8925,-0.8931,-0.8925,-0.893,-0.8927,-0.8943,-0.8939,-0.8943,-0.8942,-0.8956,-0.8955,-0.8999,-0.9005,-0.8962,-0.8962,-0.8963,0,-0.8939,-0.8946,-0.8942,-0.8945,-0.8944,-0.8949,-0.8951,-0.8942,-0.8945,-0.8945,-0.8951,-0.8956,-0.896,-0.897,-0.8966,-0.8971,-0.8967,-0.8983,-0.8968,-0.897,-0.8968,-0.8968,-0.8969,-0.8985,-0.8986,-0.8986,-0.8987,0,-0.8972,-0.8969,-0.8972,-0.8974,-0.8977,-0.8979,-0.8979,-0.8983,-0.8974,-0.8978,-0.8983,-0.8986,-0.8992,-0.8998,-0.9002,-0.9001,-0.8993,-0.8992,-0.8995,-0.8997,-0.9,-0.8999,-0.8952,-0.899,-0.899,-0.899,-0.899,-0.8989,-0.8998,-0.9004,-0.9002,-0.9006,-0.9006,-0.9008,-0.9013,-0.901,-0.9014,-0.9018,-0.9013,-0.902,-0.9021,-0.9025,-0.9026,-0.9032,-0.9026,-0.9031,-0.9032,-0.9033,-0.9035,-0.8999,-0.9033,-0.9033,-0.9033,-0.9033,-0.9033,0,-0.9031,-0.9029,-0.9033,-0.9035,-0.9039,-0.903,-0.9031,-0.9035,-0.9042,-0.9043,-0.9046,-0.9054,-0.906,-0.9057,-0.9063,-0.9069,-0.9065,-0.907,-0.907,-0.907,-0.904,-0.9037,-0.9073,-0.9073,-0.9073,-0.9073,-0.9073,-0.9073,-0.9048,-0.9058,-0.9055,-0.9065,-0.9064,-0.9071,-0.9072,-0.9074,-0.9075,-0.9083,-0.9088,-0.9086,-0.9086,-0.9091,-0.9097,-0.9096,-0.9099,-0.9106,-0.9104,-0.9076,-0.9072,-0.9068,-0.9065,-0.9106,-0.9106,-0.9133,-0.9133,-0.9133]},{"header":{"parameterUnit":"m.s-1","parameterCategory":1,"la1":30.2991,"la2":30.254,"lo1":-89.0895,"lo2":-89.0444,"dy":0.0017,"dx":0.0017,"nx":28,"ny":28,"refTime":"2025-03-25T21:00:00:Z","depth":0,"parameterNumber":3,"parameterNumberName":"V-component_of_WINDS"},"data":[0,0,0,0,0,0,0,0,0,0,0,0,0,0,0,0,0,0,0,0,0,0,0,0,0,0,0,0,0,0,0,0,0,0,0,0,0,0,0,0,0,0,0,0,0,0,0,0,0,0,0,0,0,0,0,0,0,0,1.207,1.207,0,1.2078,1.2078,1.2078,1.2065,1.2064,1.2064,1.2063,1.2071,1.2072,1.2073,0,0,0,0,0,0,0,0,0,0,0,0,0,1.2042,1.2043,1.207,1.207,1.207,1.2078,1.2078,1.2078,1.2065,1.2064,1.2064,1.2063,1.2071,1.2072,1.2073,0,0,0,0,0,0,0,0,0,0,0,0,0,1.2053,1.2043,1.207,1.2064,1.2064,1.2078,1.2078,1.2078,1.2065,1.2064,1.2064,1.2063,1.2071,1.2072,1.2073,1.2092,0,0,1.2076,1.2076,0,0,0,0,0,0,0,0,1.2052,1.2054,1.2065,1.2065,1.2064,1.207,1.2071,1.2083,1.2065,1.2065,1.2063,1.2063,1.2071,1.2072,1.2075,1.2093,1.2093,1.2076,1.2076,1.2077,1.2077,0,0,0,0,0,0,0,1.2051,1.2053,1.2073,1.2065,1.2065,1.2061,1.2062,1.2073,1.2072,1.2065,1.2064,1.2065,1.2071,1.2074,1.2075,1.2093,1.2076,1.2077,1.2077,1.2078,1.2127,1.2128,0,0,0,0,0,0,1.2051,1.2053,1.2073,1.2073,1.2056,1.2062,1.2063,1.2069,1.2072,1.2071,1.2065,1.2064,1.2073,1.2074,1.2076,1.2099,1.2077,1.2078,1.2078,1.2127,1.2128,1.2128,0,0,0,0,0,0,1.2051,1.2053,1.2072,1.2063,1.2065,1.2064,1.207,1.2069,1.2072,1.2072,1.2072,1.2069,1.2073,1.2074,1.2088,1.2099,1.2078,1.2079,1.2126,1.2127,1.2128,1.2146,0,0,0,0,0,0,1.205,1.2053,1.2061,1.2063,1.2065,1.2085,1.207,1.207,1.2074,1.2073,1.2076,1.2075,1.2072,1.2087,1.2089,1.21,1.208,1.2125,1.2126,1.2128,1.2145,1.2148,1.215,0,0,0,0,0,1.2049,1.2065,1.2061,1.2064,1.2075,1.2086,1.2087,1.2084,1.2075,1.2083,1.2082,1.2075,1.2097,1.2089,1.2091,1.2102,1.2124,1.2126,1.2128,1.2143,1.2147,1.215,0,0,0,0,0,0,1.2064,1.2066,1.2061,1.2079,1.2082,1.2084,1.2093,1.2088,1.2094,1.2092,1.2087,1.2087,1.2103,1.2104,1.2094,1.2121,1.2109,1.2112,1.212,1.2124,1.2127,1.2127,1.2081,0,0,0,0,0,1.207,1.2079,1.2079,1.2095,1.2097,1.2095,1.2099,1.2096,1.21,1.2101,1.2102,1.2106,1.2113,1.2119,1.2126,1.2144,1.2145,1.2153,1.2156,1.2158,1.2161,1.2171,1.2175,1.2134,1.2134,1.2134,0,0,1.2081,1.2083,1.2089,1.2098,1.21,1.211,1.2096,1.2107,1.2114,1.2103,1.2116,1.2117,1.2121,1.2137,1.2145,1.2139,1.2172,1.2161,1.2163,1.2164,1.2173,1.2177,1.218,1.2135,1.2135,1.2135,0,0,1.2107,1.2109,1.2123,1.2125,1.2129,1.2127,1.2131,1.2133,1.2133,1.2146,1.2138,1.2146,1.216,1.2163,1.2166,1.2193,1.2186,1.2195,1.2211,1.2221,1.2224,1.2227,1.2237,1.224,1.2197,1.2197,1.2197,0,1.2121,1.2135,1.213,1.2141,1.2145,1.2136,1.2149,1.2152,1.2158,1.2161,1.2154,1.2171,1.2172,1.219,1.2196,1.2199,1.2202,1.2195,1.2224,1.2226,1.2229,1.2239,1.2242,1.2198,1.2198,1.2198,1.2198,0,1.2152,1.2162,1.2172,1.2178,1.2183,1.2195,1.2192,1.2198,1.2194,1.2193,1.2207,1.2208,1.2216,1.2219,1.2215,1.2236,1.2232,1.2225,1.2212,1.2234,1.2243,1.2247,1.22,1.2199,1.2199,1.2199,0,0,1.2189,1.2192,1.2196,1.2198,1.2202,1.2209,1.222,1.2228,1.2233,1.2237,1.2247,1.2258,1.2251,1.2255,1.2251,1.226,1.2281,1.2251,1.2251,1.2257,1.2304,1.2311,1.2315,1.2276,1.2277,1.2278,1.2304,0,1.2215,1.2235,1.2231,1.2251,1.226,1.225,1.226,1.2263,1.2263,1.227,1.2269,1.2277,1.2267,1.2269,1.2277,1.2277,1.2291,1.2275,1.2286,1.2286,1.2286,1.232,1.2327,1.2352,1.2308,1.2308,1.2309,0,1.2249,1.2255,1.2275,1.2277,1.2281,1.229,1.2296,1.2303,1.2306,1.2305,1.2309,1.2303,1.2315,1.2302,1.2317,1.2307,1.2311,1.2311,1.2312,1.2314,1.23,1.2323,1.236,1.2364,1.2314,1.2314,1.2313,0,1.2275,1.2287,1.2301,1.2304,1.2306,1.2313,1.2314,1.2316,1.2321,1.2326,1.2329,1.2335,1.2339,1.2344,1.2341,1.2331,1.2357,1.2344,1.2357,1.2357,1.2363,1.2363,1.2402,1.2364,1.2364,1.2364,1.2364,0,1.2305,1.2319,1.2313,1.2322,1.2337,1.2331,1.2345,1.2345,1.2347,1.2356,1.2348,1.2356,1.235,1.2358,1.2355,1.2368,1.237,1.2369,1.2369,1.2371,1.2371,1.2374,1.2373,1.2365,1.2365,1.2365,1.2365,0,1.2337,1.2334,1.2349,1.235,1.235,1.2361,1.2361,1.2369,1.2367,1.2379,1.2381,1.2378,1.2387,1.2383,1.2392,1.239,1.2408,1.2404,1.2407,1.2407,1.242,1.2419,1.2464,1.2469,1.2427,1.2427,1.2427,0,1.2358,1.2368,1.2369,1.2374,1.2376,1.2385,1.2389,1.2383,1.2389,1.2393,1.24,1.2408,1.2414,1.2428,1.2427,1.2434,1.2431,1.2446,1.2432,1.2434,1.2433,1.2432,1.2434,1.2449,1.245,1.245,1.2451,0,1.2394,1.2392,1.2399,1.2405,1.2411,1.2416,1.242,1.2425,1.2419,1.2425,1.2434,1.2439,1.2448,1.2456,1.2462,1.2463,1.2456,1.2455,1.2458,1.2461,1.2463,1.2463,1.2416,1.2454,1.2454,1.2453,1.2453,1.2453,1.2422,1.243,1.2433,1.2441,1.2443,1.2447,1.2455,1.2454,1.2461,1.2468,1.2464,1.2474,1.2476,1.2484,1.2486,1.2494,1.2488,1.2493,1.2494,1.2496,1.2498,1.2461,1.2494,1.2494,1.2494,1.2494,1.2494,0,1.2459,1.246,1.2467,1.2473,1.2479,1.2472,1.2475,1.2481,1.2491,1.2493,1.2499,1.2509,1.2517,1.2516,1.2523,1.2529,1.2527,1.2531,1.2532,1.2532,1.2502,1.2499,1.2534,1.2534,1.2534,1.2534,1.2534,1.2534,1.2479,1.2493,1.2491,1.2506,1.2507,1.2517,1.252,1.2524,1.2526,1.2537,1.2544,1.2543,1.2544,1.2551,1.2557,1.2557,1.256,1.2567,1.2565,1.2538,1.2534,1.253,1.2527,1.2567,1.2567,1.2594,1.2595,1.2595]}]]